Location: Étouvelles
(49.5207°N, 3.5808°E)
Time: 23:00:33
(UTC+00:00)

Lacrosse 5 - Pass Details

Date: 03 February 2023
Orbit: 714 x 724 km, 57.0° (Epoch: 09 March)

Event Time Altitude Azimuth Distance (km) Brightness Sun altitude
Rises 20:09:23 0° 266° (W) 3,136 6.1 -33.3°
Reaches altitude 10° 20:11:53 10° 274° (W) 2,217 5.2 -33.7°
Enters shadow 20:15:03 32° 301° (WNW) 1,240 3.5 -34.2°
